[Date Prev][Date Next][Thread Prev][Thread Next] - [Date Index][Thread Index][Author Index]

AO-40 Keps



AO-40                   
1 26609U 00072B   00326.22269097 -.00000581  00000-0  00000+0 0    29
2 26609   6.4279 245.5626 7344055 179.5891 182.1915  2.03421959   104

Keps at ARRL not latest. See above-Arthur N1ORC
----
Via the sarex mailing list at AMSAT.ORG courtesy of AMSAT-NA.
To unsubscribe, send "unsubscribe sarex" to Majordomo@amsat.org



AMSAT Top AMSAT Home